Location: Aurora Center
(43.5271°N, 98.5894°W)
Time: 00:28:23
(UTC-05:00)

BlueWalker 3 - Pass Details

Date: 24 June 2024
Orbit: 480 x 492 km, 53.2° (Epoch: 15 July)

Event Time Altitude Azimuth Distance (km) Brightness Sun altitude
Rises 00:11:20 0° 297° (WNW) 2,540 6.2 -20.2°
Reaches altitude 10° 00:14:02 10° 316° (NW) 1,659 5.5 -20.4°
Maximum altitude 00:16:41 18° 2° (N) 1,234 4.7 -20.6°
Drops below altitude 10° 00:19:21 10° 47° (NE) 1,657 4.8 -20.7°
Sets 00:22:02 0° 67° (ENE) 2,536 5.6 -20.9°
